Flag for Germany Weather past 2 weeks in Lübeck, Schleswig-Holstein, Germany

45 °F

Passing clouds.

Feels Like: 39 °F
Forecast: 38 / 50 °F
Wind: 10 mph from West

Location: Luebeck-Blankensee

Current Time: Nov 28, 2015 at 3:02:36 PM

Latest Report: Nov 28, 2015 at 2:20 PM

Visibility: N/A

Pressure: 29.71 "Hg

Humidity: 76%

Dew point: 37 °F

Location of LübeckLocation

Historic Weather in Lübeck — Graph


Lübeck temperature yesterday

Maximum temperature yesterday: 43 °F (at 2:20 PM)
Minimum temperature yesterday: 34 °F (at 6:50 AM)
Average temperature yesterday: 38 °F

Past Weeks' High & Low Weather Summary

High57 °F (Nov 13, 1:20 PM)100% (Nov 15, 7:20 AM)30.15 "Hg (Nov 15, 7:20 AM)
Low30 °F (Nov 22, 8:20 PM)52% (Nov 27, 10:50 AM)29.30 "Hg (Nov 21, 6:50 AM)
Average43 °F87%29.73 "Hg
* Reported Nov 13 1:20 PM — Nov 28 1:50 PM, Lübeck, Weather by CustomWeather, © 2015

Note: Actual official high and low records may vary slightly from our data, if they occured in-between our weather recording intervals... More about our weather records


Lübeck weather history for previous 24 hours

Time TempWeatherWind HumidityBarometerVisibility
1:50 PM
Sat, Nov 28
45 °FPassing clouds.8 mph76%29.68 "HgN/A
1:20 PM45 °FPartly sunny.8 mph81%29.68 "HgN/A
12:50 PM43 °FPartly sunny.8 mph87%29.68 "HgN/A
12:20 PM43 °FPartly sunny.8 mph93%29.65 "HgN/A
11:50 AM43 °FPartly sunny.7 mph87%29.65 "HgN/A
11:20 AM41 °FLight rain. Partly sunny.3 mph93%29.62 "HgN/A
10:50 AM39 °FLight rain. Broken clouds.2 mph100%29.62 "HgN/A
10:20 AM39 °FLight rain. Broken clouds.5 mph93%29.62 "HgN/A
9:50 AM37 °FLight rain. Broken clouds.7 mph93%29.59 "HgN/A
9:20 AM36 °FLight rain. Partly sunny.13 mph100%29.59 "HgN/A
8:50 AM36 °FLight rain. Partly sunny.10 mph100%29.59 "Hg5 mi
8:20 AM36 °FLight rain. Partly sunny.10 mph100%29.56 "Hg5 mi
7:50 AM36 °FLight rain. Fog.10 mph93%29.56 "Hg3 mi
7:20 AM36 °FFog.9 mph93%29.56 "Hg3 mi
6:50 AM36 °FDrizzle. Fog.10 mph93%29.56 "Hg2 mi
9:50 PM
Fri, Nov 27
36 °FClear.10 mph87%29.80 "Hg10 mi
9:20 PM37 °FClear.9 mph81%29.80 "Hg10 mi
8:50 PM37 °FClear.10 mph87%29.80 "Hg10 mi
8:20 PM37 °FClear.9 mph87%29.83 "Hg10 mi
7:50 PM39 °FClear.9 mph81%29.83 "Hg10 mi
7:20 PM39 °FPassing clouds.10 mph81%29.86 "HgN/A
6:50 PM39 °FClear.9 mph81%29.86 "Hg10 mi
6:20 PM39 °FClear.9 mph87%29.86 "Hg10 mi
5:50 PM39 °FClear.8 mph87%29.89 "Hg10 mi
5:20 PM39 °FClear.8 mph87%29.89 "Hg10 mi
4:50 PM39 °FClear.7 mph93%29.89 "Hg10 mi
4:20 PM41 °FClear.7 mph87%29.89 "Hg10 mi
3:50 PM41 °FPassing clouds.7 mph87%29.92 "HgN/A
3:20 PM41 °FSunny.7 mph87%29.92 "Hg10 mi
Weather by CustomWeather, © 2015

See weather overviewHow to use our weather pages